CONNECTA T1.2 (55012 NORAD) Tracking and Keplerian Element Data

This shows tracking and keplerian element data for the satellite.

Feedback or suggestion? Click here.




ElementValue
Catalog55012
NameCONNECTA T1.2
Epoch Orbit1244
Epoch Day84.89740697
Epoch Year2023
RAAN145.6574
Inclination97.4942
Eccentricity0.001024
Argument of Perigee317.9005
Mean Anonmoly42.1439
Mean Motion15.13440942
Decay Rate8.176E-05
L11 55012U 23001D 23084.89740697 .00008176 00000+0 46039-3 0 9992
L22 55012 97.4942 145.6574 0010240 317.9005 42.1439 15.13440942 12441



Live tracking and technical data element details for CONNECTA T1.2 (NORAD 55012). CONNECTA T1.2 can be tracked NOW for your location showing map with azimuth and elevation plus other details from your city location.







IsCatalogInMostPopularTable: catalog: 55012, numindb: 12
Update: records affected: 1



GetName: 55012 CONNECTA T1.2

Hit Count: updated at: Mon, 27 Mar 2023 06:46:59 GMT